Wind_Speed
23 22 22 22 22 22 22 22 22 23 22 21 21 21 21 21 21 21 20 20 21 20 20 20 21 21 22 22 22 21 21 22 22 21 21 22 23 22 22 23 23 23 23
21 21 22 21 21 21 21 21 21 21 21 20 20 19 19 20 20 20 19 18 19 19 19 19 19 20 20 20 20 21 21 21 21 21 21 21 22 22 22 22 21 21 22
20 20 20 20 19 20 20 20 20 20 18 18 18 18 17 17 17 17 17 17 18 18 18 18 18 19 20 19 19 20 20 20 20 20 20 21 21 22 22 22 22 21 21
19 19 19 19 19 19 19 18 18 17 16 16 16 17 16 15 15 15 15 15 16 16 15 16 17 17 18 19 19 19 19 20 20 20 20 20 20 21 21 22 21 21 21
18 18 18 18 18 17 17 17 17 16 16 16 16 16 14 14 14 14 13 13 12 12 13 13 14 15 16 17 18 18 18 19 19 20 19 19 19 20 20 21 20 20 20
17 16 16 16 16 16 16 16 16 16 15 15 15 13 12 12 12 12 11 11 10 10 10 10 11 12 13 15 16 17 18 18 19 19 19 19 18 18 19 19 19 18 18
15 15 15 15 14 14 14 15 15 15 14 14 13 12 11 12 11 11 9 8 8 8 9 9 10 10 11 12 13 15 15 16 17 17 18 17 17 17 17 17 17 17 17
14 14 14 14 13 13 13 13 14 14 14 14 13 13 12 12 11 10 10 9 9 8 8 8 8 9 10 10 11 12 13 14 15 15 15 16 16 15 15 15 15 16 15
13 13 13 12 12 12 12 13 13 14 14 14 13 12 12 11 10 10 9 8 8 7 6 6 6 6 7 8 9 10 11 11 12 12 13 13 13 13 13 14 14 14 15
12 12 12 11 11 12 12 12 13 13 13 13 12 11 11 10 10 9 8 8 7 6 5 5 5 5 6 6 7 8 9 10 10 11 11 11 11 11 12 12 13 14 14
11 11 10 10 11 11 11 12 12 12 12 12 12 11 10 10 9 8 8 7 7 6 5 5 4 3 4 4 5 7 7 8 8 9 9 10 11 11 11 12 13 14 14
10 10 10 10 10 11 11 11 11 11 11 12 12 11 10 10 9 8 7 7 6 5 5 4 3 3 3 3 4 5 5 6 7 7 8 9 11 11 11 12 13 13 14
9 9 9 10 10 10 10 10 10 10 11 11 11 11 11 10 9 8 7 6 6 5 5 5 4 4 4 4 4 4 4 5 6 7 8 9 10 10 11 12 13 13 14
8 8 8 8 9 9 9 9 10 10 10 11 11 11 10 9 9 8 7 6 6 6 5 4 4 4 4 5 4 4 5 6 7 8 8 9 9 10 11 12 13 14 15
7 8 7 8 9 9 9 9 10 10 11 11 11 10 10 9 9 8 7 7 6 6 5 5 5 5 4 4 5 5 6 7 8 9 9 10 11 11 12 12 13 14 14
7 7 7 8 8 8 9 9 10 11 11 11 10 10 9 9 9 8 7 7 7 6 6 6 6 6 6 6 6 6 7 8 9 10 11 12 12 13 14 14 15 15 16
6 7 8 8 8 8 9 10 10 10 10 10 10 10 9 9 9 9 8 8 8 7 7 6 7 7 8 8 8 9 10 11 12 13 13 14 14 15 16 16 17 18 18
7 8 8 9 10 10 9 10 10 10 10 10 10 10 10 10 10 10 10 9 9 9 9 8 9 9 10 10 11 12 13 14 14 15 15 16 16 17 17 18 19 19 20
8 9 9 10 10 10 9 10 10 10 10 10 11 11 11 11 11 11 11 11 11 11 11 11 11 11 12 14 15 15 16 17 17 18 18 18 19 19 20 20 21 21 22
8 9 9 10 11 11 10 10 11 11 11 11 12 12 12 12 12 12 12 12 12 13 13 13 14 15 16 16 17 17 18 19 20 20 21 21 21 22 22 23 22 23 23
8 9 10 11 11 11 11 11 12 12 13 13 13 13 13 14 14 14 15 15 15 15 15 16 17 17 18 19 20 20 21 21 22 22 23 23 24 24 24 24 25 26 26
8 9 10 11 11 12 12 13 14 14 14 15 14 14 14 15 16 17 18 18 18 18 19 19 20 21 22 22 23 23 24 24 24 24 25 25 25 26 26 27 27 28 28
9 10 11 12 13 13 13 14 14 15 15 15 15 16 16 17 18 19 20 20 20 21 21 21 21 22 23 23 24 24 24 25 25 26 26 27 27 28 28 29 29 30 31
10 11 12 13 14 14 15 16 16 16 16 17 18 18 19 20 20 21 21 21 22 22 23 24 23 24 24 24 25 25 25 26 27 27 28 28 28 29 29 30 30 31 32
12 12 13 14 15 16 17 17 18 18 19 19 20 21 21 22 22 23 23 23 23 24 25 25 26 26 26 27 27 27 27 28 28 29 29 29 29 30 31 31 32 32 33
13 14 15 16 16 17 18 19 20 20 21 21 22 23 23 24 24 25 25 25 26 26 27 27 28 28 28 28 29 29 30 31 31 31 32 32 32 32 33 34 34 35 35
Wind_Direction
305 306 307 307 308 308 307 307 307 308 307 306 302 298 294 290 287 284 279 276 273 271 268 264 262 260 258 257 257 258 257 255 255 255 258 258 257 257 259 261 262 260 258
303 305 307 308 308 308 310 309 310 310 309 307 305 300 297 294 289 287 281 278 276 273 269 264 262 259 258 257 256 256 256 255 256 256 256 257 257 258 259 261 262 262 259
304 305 306 309 309 310 312 313 314 315 313 310 308 307 303 299 294 291 285 280 277 274 270 265 261 259 256 256 255 254 255 255 255 254 255 257 256 257 257 259 260 259 259
307 306 307 309 311 312 315 317 320 320 318 316 314 312 307 303 299 294 290 282 280 273 269 265 262 259 255 254 253 252 253 254 254 253 256 260 257 258 259 259 259 259 259
309 309 308 309 312 314 315 319 322 323 322 321 319 315 311 308 305 302 296 289 285 276 269 264 262 258 255 252 251 250 251 253 253 255 259 259 259 260 261 261 261 261 261
310 312 312 311 314 316 319 322 325 326 324 325 322 320 317 311 307 307 301 294 291 283 274 267 264 258 255 253 250 250 252 252 254 256 257 260 259 261 261 262 261 260 262
310 313 315 315 317 321 325 327 329 330 328 328 327 326 323 319 316 311 313 308 300 296 288 278 272 266 261 257 252 252 251 251 254 255 257 256 258 259 260 259 258 258 260
315 316 319 321 322 326 327 330 333 334 331 326 325 324 324 322 321 315 312 314 313 307 301 287 277 270 264 259 254 252 251 250 250 253 253 254 254 256 257 256 255 256 258
322 322 323 323 326 326 328 332 333 333 334 336 333 331 329 327 326 324 320 314 313 309 305 299 287 272 263 259 255 250 246 247 250 251 253 250 250 252 254 255 256 257 258
323 325 330 332 330 330 331 337 339 339 340 340 340 337 334 331 329 327 328 326 322 318 312 306 291 275 267 261 255 247 246 249 247 247 248 247 248 252 255 256 256 257 259
322 326 330 336 337 335 335 339 341 342 344 344 345 346 343 341 339 335 329 326 328 324 317 311 300 285 267 265 262 253 250 248 243 241 246 250 253 257 257 258 259 260 261
323 328 332 335 337 337 336 340 344 344 343 346 348 350 348 345 345 343 343 342 338 329 322 324 314 300 283 284 274 258 253 252 250 250 256 256 257 260 260 259 261 262 263
330 331 331 335 338 340 342 346 348 348 350 352 353 353 352 351 352 353 353 354 351 344 337 337 328 316 303 301 294 286 280 266 261 259 261 261 262 264 262 262 265 265 266
332 335 336 337 342 346 350 354 356 355 357 356 354 355 356 356 354 352 353 352 352 353 357 353 345 324 309 303 296 287 282 276 273 272 274 270 270 272 268 266 267 268 269
337 338 341 343 349 353 355 355 357 357 354 354 356 358 358 357 355 352 350 347 346 347 348 343 332 324 311 296 290 287 281 281 281 280 279 276 276 277 275 272 272 274 274
338 348 352 350 351 353 353 353 352 353 352 352 354 356 358 359 358 352 347 342 338 335 333 332 328 326 320 305 297 293 290 289 290 290 286 284 284 280 276 275 276 277 275
348 352 355 356 354 352 350 350 350 351 349 350 351 351 353 352 349 347 346 341 335 328 323 320 320 317 314 308 302 296 293 292 290 291 288 285 285 284 283 280 278 277 277
352 352 354 354 351 349 349 349 347 346 345 345 346 344 342 343 342 341 341 339 333 326 319 314 312 308 306 305 303 299 297 296 294 292 290 288 287 285 285 283 282 280 278
350 351 351 352 351 349 346 344 344 343 345 346 343 343 341 339 336 333 331 330 328 323 318 312 307 304 301 300 299 297 297 297 295 294 291 288 287 286 285 285 283 282 282
355 355 354 353 353 352 348 343 342 342 341 338 336 335 333 332 331 330 328 324 320 318 315 311 306 303 301 299 297 294 293 293 292 291 291 289 287 286 285 284 284 283 283
1 1 359 357 357 355 352 346 341 337 335 333 331 328 326 325 325 325 324 322 318 314 311 308 305 302 300 298 296 295 294 292 291 291 290 289 288 286 285 284 284 284 283
2 2 360 357 355 353 350 345 340 336 333 331 330 327 325 323 322 320 319 319 315 311 310 307 304 302 300 298 297 295 294 293 291 291 290 288 287 286 285 284 284 283 282
356 354 353 350 349 347 345 343 340 337 335 333 331 328 325 322 320 318 317 315 312 311 309 308 306 304 303 301 299 296 295 293 292 291 291 291 289 288 287 286 285 284 283
347 345 343 342 341 340 339 338 337 335 332 330 328 326 324 322 320 318 317 315 313 311 308 307 306 305 303 302 300 298 296 295 295 294 292 291 290 289 288 288 288 287 286
342 339 338 337 336 335 334 334 333 332 331 329 327 326 324 322 320 319 317 315 313 311 309 307 305 304 303 301 299 297 296 294 293 294 293 292 291 290 290 289 289 289 288
338 337 337 336 335 334 333 332 331 330 328 326 325 324 322 321 319 317 317 315 314 312 311 309 307 305 304 301 298 297 297 295 294 294 293 292 291 291 290 289 289 288 288
Height
5789 5786 5783 5780 5776 5772 5769 5766 5762 5759 5755 5752 5749 5746 5744 5742 5740 5738 5737 5736 5736 5736 5736 5737 5738 5739 5740 5742 5743 5744 5746 5747 5749 5750 5750 5751 5752 5753 5754 5755 5756 5757 5757
5784 5781 5778 5775 5771 5768 5764 5761 5757 5754 5750 5747 5744 5741 5738 5736 5734 5732 5731 5730 5730 5729 5730 5730 5732 5733 5734 5736 5737 5739 5740 5741 5743 5744 5745 5746 5747 5748 5749 5750 5750 5751 5751
5780 5777 5774 5770 5767 5763 5760 5756 5753 5749 5746 5743 5740 5737 5734 5731 5729 5727 5725 5724 5724 5724 5724 5724 5726 5727 5729 5730 5732 5733 5735 5736 5737 5739 5739 5740 5741 5742 5743 5744 5744 5745 5746
5776 5772 5769 5766 5763 5759 5756 5753 5749 5745 5742 5739 5736 5733 5730 5727 5725 5723 5721 5720 5719 5719 5719 5719 5720 5721 5723 5725 5726 5728 5729 5731 5732 5733 5734 5735 5736 5737 5737 5738 5739 5739 5740
5771 5768 5765 5762 5759 5756 5752 5749 5746 5742 5739 5736 5733 5729 5727 5724 5722 5719 5717 5716 5715 5714 5714 5715 5715 5716 5718 5719 5721 5723 5724 5725 5727 5728 5729 5730 5731 5731 5732 5732 5733 5733 5734
5768 5765 5762 5759 5756 5753 5749 5746 5743 5739 5736 5733 5730 5727 5724 5721 5719 5717 5715 5714 5713 5712 5711 5711 5712 5713 5714 5715 5717 5718 5719 5721 5722 5723 5724 5725 5725 5726 5726 5727 5727 5728 5729
5764 5761 5758 5755 5753 5750 5747 5744 5741 5737 5734 5731 5728 5725 5722 5719 5717 5715 5713 5711 5710 5710 5709 5709 5709 5709 5710 5711 5712 5713 5715 5716 5717 5718 5719 5720 5720 5721 5722 5722 5722 5723 5724
5761 5758 5756 5753 5750 5748 5745 5742 5739 5736 5732 5729 5726 5723 5720 5718 5716 5714 5712 5710 5709 5708 5707 5706 5706 5707 5707 5708 5708 5709 5710 5712 5713 5714 5715 5715 5716 5717 5717 5718 5718 5719 5719
5759 5756 5753 5751 5748 5746 5743 5740 5737 5734 5731 5728 5724 5721 5719 5716 5714 5712 5710 5709 5707 5706 5705 5705 5705 5705 5705 5705 5706 5706 5707 5708 5709 5709 5710 5711 5712 5713 5713 5714 5714 5715 5715
5757 5754 5751 5749 5746 5744 5741 5738 5736 5733 5730 5727 5723 5720 5718 5715 5713 5711 5709 5707 5706 5705 5704 5704 5703 5703 5703 5703 5704 5704 5704 5705 5706 5707 5707 5708 5709 5709 5709 5710 5710 5711 5711
5755 5752 5750 5747 5745 5742 5740 5737 5734 5731 5729 5726 5723 5719 5717 5714 5712 5710 5708 5707 5705 5704 5703 5703 5702 5702 5702 5702 5702 5702 5702 5703 5703 5704 5704 5705 5705 5706 5706 5706 5706 5706 5707
5753 5750 5748 5746 5744 5741 5739 5736 5733 5730 5728 5725 5722 5719 5716 5714 5712 5710 5708 5706 5705 5704 5703 5702 5702 5701 5701 5701 5701 5701 5701 5701 5701 5701 5702 5702 5702 5702 5702 5703 5703 5702 5702
5751 5749 5747 5745 5743 5740 5738 5735 5732 5730 5727 5724 5722 5719 5716 5714 5711 5710 5708 5706 5705 5704 5703 5702 5701 5701 5700 5700 5700 5699 5699 5699 5699 5699 5699 5699 5699 5699 5699 5699 5699 5699 5698
5750 5748 5745 5743 5741 5739 5737 5734 5732 5729 5727 5724 5722 5719 5716 5714 5712 5710 5708 5707 5705 5704 5703 5702 5701 5700 5699 5699 5698 5698 5697 5697 5697 5697 5697 5696 5696 5695 5695 5695 5695 5694 5694
5748 5746 5744 5742 5740 5738 5736 5734 5732 5729 5727 5724 5722 5719 5716 5714 5712 5710 5708 5707 5705 5704 5703 5702 5700 5699 5698 5698 5697 5696 5696 5695 5695 5694 5694 5693 5693 5692 5691 5691 5690 5690 5689
5747 5745 5743 5741 5740 5738 5736 5734 5732 5729 5727 5724 5722 5719 5717 5715 5712 5710 5708 5707 5705 5704 5702 5701 5700 5698 5697 5696 5695 5694 5694 5693 5692 5691 5691 5690 5689 5688 5688 5687 5686 5685 5684
5746 5745 5743 5741 5739 5737 5735 5733 5731 5729 5727 5724 5722 5719 5717 5715 5713 5710 5708 5706 5705 5703 5701 5700 5699 5697 5696 5695 5694 5693 5692 5690 5689 5688 5687 5686 5685 5684 5683 5682 5681 5680 5679
5746 5744 5743 5741 5739 5737 5735 5733 5730 5728 5726 5724 5722 5719 5717 5715 5712 5710 5708 5706 5704 5702 5700 5699 5697 5696 5695 5693 5692 5690 5689 5687 5686 5684 5683 5682 5680 5679 5678 5677 5675 5674 5673
5746 5744 5742 5740 5738 5736 5734 5732 5730 5727 5725 5722 5720 5718 5716 5714 5711 5709 5707 5705 5702 5700 5698 5697 5695 5693 5692 5690 5688 5687 5685 5683 5681 5680 5678 5677 5675 5673 5672 5671 5669 5668 5666
5746 5744 5742 5740 5738 5735 5733 5731 5729 5727 5724 5722 5719 5717 5714 5712 5710 5707 5705 5703 5700 5698 5696 5694 5692 5690 5688 5686 5684 5682 5680 5678 5676 5674 5672 5671 5669 5667 5666 5664 5662 5661 5659
5746 5744 5742 5739 5737 5735 5732 5730 5728 5725 5723 5720 5718 5715 5713 5710 5708 5705 5703 5700 5697 5695 5693 5690 5688 5686 5683 5681 5679 5677 5674 5672 5670 5668 5666 5664 5662 5660 5659 5657 5655 5653 5651
5745 5743 5741 5739 5737 5734 5731 5729 5726 5723 5721 5718 5715 5713 5710 5708 5705 5702 5699 5696 5694 5691 5689 5686 5683 5680 5678 5675 5673 5670 5668 5665 5663 5661 5658 5656 5654 5652 5650 5648 5646 5644 5643
5745 5743 5740 5738 5736 5733 5730 5727 5724 5722 5718 5715 5713 5710 5707 5704 5701 5698 5695 5692 5689 5686 5683 5680 5677 5674 5671 5668 5665 5663 5660 5658 5655 5652 5650 5648 5645 5643 5641 5639 5637 5635 5633
5744 5741 5739 5737 5734 5731 5728 5725 5722 5719 5716 5713 5709 5706 5703 5700 5697 5693 5690 5687 5683 5680 5677 5674 5671 5667 5664 5661 5658 5655 5652 5650 5647 5644 5642 5639 5636 5634 5632 5629 5627 5624 5622
5742 5740 5737 5735 5732 5729 5726 5723 5719 5716 5713 5709 5706 5702 5699 5695 5692 5688 5684 5681 5677 5674 5670 5667 5663 5660 5656 5653 5650 5647 5644 5641 5638 5635 5632 5629 5627 5624 5621 5619 5616 5613 5611
5741 5738 5735 5732 5729 5726 5723 5719 5716 5712 5709 5705 5701 5697 5694 5690 5686 5682 5678 5674 5671 5667 5663 5659 5656 5652 5648 5645 5641 5638 5635 5632 5628 5625 5621 5619 5616 5613 5610 5607 5605 5602 5599